Location: Go�ngahuizen
(53.0821°N, 5.8849°E)
Time: 05:20:51
(UTC+00:00)

RESURS DK-1 - Pass Details

Date: 09 April 2020
Orbit: 557 x 561 km, 69.9° (Epoch: 29 May)

Event Time Altitude Azimuth Distance (km) Brightness Sun altitude
Rises 19:04:46 0° 330° (NNW) 2,764 6.8 -6.3°
Reaches altitude 10° 19:07:23 10° 345° (NNW) 1,864 5.6 -6.6°
Maximum altitude 19:10:42 23° 38° (NE) 1,234 4.0 -7.1°
Drops below altitude 10° 19:14:02 10° 92° (E) 1,855 4.4 -7.6°
Enters shadow 19:14:25 - 95° (E) 1,977 4.5 -7.6°
